Time,TemperatureF,DewpointF,PressureIn,WindDirection,WindDirectionDegrees,WindSpeedMPH,WindSpeedGustMPH,Humidity,HourlyPrecipIn,Conditions,Clouds,dailyrainin,SoftwareType,DateUTC
2013-02-01 00:00:00,29.0,17.2,29.80,North,360,6.0,20.0,61,0.00,,,0.00,Weather View 32 v70,2013-02-01 05:00:00,
2013-02-01 00:01:00,29.0,17.2,29.80,WSW,247,9.0,20.0,61,0.00,,,0.00,Weather View 32 v70,2013-02-01 05:01:00,
2013-02-01 00:02:00,29.0,17.2,29.80,WSW,247,6.0,20.0,61,0.00,,,0.00,Weather View 32 v70,2013-02-01 05:02:00,
2013-02-01 00:07:00,28.0,16.7,29.80,WNW,292,9.0,20.0,62,0.00,,,0.00,Weather View 32 v70,2013-02-01 05:07:00,
2013-02-01 00:12:00,28.0,16.7,29.81,NW,315,3.0,20.0,62,0.00,,,0.00,Weather View 32 v70,2013-02-01 05:12:00,
2013-02-01 00:17:00,28.0,15.9,29.81,West,270,6.0,20.0,60,0.00,,,0.00,Weather View 32 v70,2013-02-01 05:17:00,
2013-02-01 00:22:00,28.0,16.3,29.81,SW,225,8.0,20.0,61,0.00,,,0.00,Weather View 32 v70,2013-02-01 05:22:00,
2013-02-01 00:27:00,28.0,15.9,29.81,West,270,6.0,20.0,60,0.00,,,0.00,Weather View 32 v70,2013-02-01 05:27:00,
2013-02-01 00:32:00,28.0,16.3,29.81,West,270,3.0,20.0,61,0.00,,,0.00,Weather View 32 v70,2013-02-01 05:32:00,
2013-02-01 00:37:00,28.0,15.1,29.81,North,360,6.0,20.0,58,0.00,,,0.00,Weather View 32 v70,2013-02-01 05:37:00,
2013-02-01 00:42:00,28.0,13.9,29.81,SSW,202,3.0,21.0,55,0.00,,,0.00,Weather View 32 v70,2013-02-01 05:42:00,
2013-02-01 00:47:00,28.0,13.9,29.81,West,270,2.0,21.0,55,0.00,,,0.00,Weather View 32 v70,2013-02-01 05:47:00,
2013-02-01 00:52:00,28.0,12.6,29.82,WNW,292,2.0,21.0,52,0.00,,,0.00,Weather View 32 v70,2013-02-01 05:52:00,
2013-02-01 00:57:00,28.0,12.6,29.82,West,270,6.0,21.0,52,0.00,,,0.00,Weather View 32 v70,2013-02-01 05:57:00,
2013-02-01 01:02:00,28.0,12.2,29.82,West,270,1.0,21.0,51,0.00,,,0.00,Weather View 32 v70,2013-02-01 06:02:00,
2013-02-01 01:07:00,28.0,11.7,29.82,West,270,7.0,21.0,50,0.00,,,0.00,Weather View 32 v70,2013-02-01 06:07:00,
2013-02-01 01:12:00,27.0,10.8,29.82,WSW,247,7.0,21.0,50,0.00,,,0.00,Weather View 32 v70,2013-02-01 06:12:00,
2013-02-01 01:17:00,27.0,10.4,29.82,WNW,292,3.0,21.0,49,0.00,,,0.00,Weather View 32 v70,2013-02-01 06:17:00,
2013-02-01 01:22:00,27.0,10.4,29.83,SW,225,4.0,21.0,49,0.00,,,0.00,Weather View 32 v70,2013-02-01 06:22:00,
2013-02-01 01:27:00,27.0,10.8,29.83,West,270,3.0,21.0,50,0.00,,,0.00,Weather View 32 v70,2013-02-01 06:27:00,
2013-02-01 01:32:00,27.0,9.9,29.84,WSW,247,4.0,21.0,48,0.00,,,0.00,Weather View 32 v70,2013-02-01 06:32:00,
2013-02-01 01:37:00,27.0,9.9,29.84,West,270,6.0,21.0,48,0.00,,,0.00,Weather View 32 v70,2013-02-01 06:37:00,
2013-02-01 01:42:00,27.0,9.4,29.85,West,270,7.0,19.0,47,0.00,,,0.00,Weather View 32 v70,2013-02-01 06:42:00,
2013-02-01 01:47:00,27.0,9.9,29.85,WNW,292,6.0,18.0,48,0.00,,,0.00,Weather View 32 v70,2013-02-01 06:47:00,
2013-02-01 01:52:00,27.0,9.9,29.85,WSW,247,11.0,18.0,48,0.00,,,0.00,Weather View 32 v70,2013-02-01 06:52:00,
2013-02-01 01:57:00,27.0,9.9,29.85,West,270,2.0,18.0,48,0.00,,,0.00,Weather View 32 v70,2013-02-01 06:57:00,
2013-02-01 02:02:00,27.0,9.9,29.85,SW,225,3.0,18.0,48,0.00,,,0.00,Weather View 32 v70,2013-02-01 07:02:00,
2013-02-01 02:07:00,26.0,9.0,29.85,SW,225,8.0,18.0,48,0.00,,,0.00,Weather View 32 v70,2013-02-01 07:07:00,
2013-02-01 02:12:00,26.0,8.5,29.85,WSW,247,6.0,18.0,47,0.00,,,0.00,Weather View 32 v70,2013-02-01 07:12:00,
2013-02-01 02:17:00,26.0,9.0,29.85,WSW,247,9.0,18.0,48,0.00,,,0.00,Weather View 32 v70,2013-02-01 07:17:00,
2013-02-01 02:22:00,26.0,8.5,29.86,WSW,247,6.0,18.0,47,0.00,,,0.00,Weather View 32 v70,2013-02-01 07:22:00,
2013-02-01 02:27:00,26.0,8.5,29.86,West,270,4.0,18.0,47,0.00,,,0.00,Weather View 32 v70,2013-02-01 07:27:00,
2013-02-01 02:32:00,26.0,9.0,29.85,West,270,6.0,18.0,48,0.00,,,0.00,Weather View 32 v70,2013-02-01 07:32:00,
2013-02-01 02:37:00,26.0,8.5,29.85,WNW,292,12.0,18.0,47,0.00,,,0.00,Weather View 32 v70,2013-02-01 07:37:00,
2013-02-01 02:42:00,26.0,9.0,29.86,WSW,247,4.0,18.0,48,0.00,,,0.00,Weather View 32 v70,2013-02-01 07:42:00,
2013-02-01 02:47:00,26.0,9.0,29.86,WNW,292,10.0,18.0,48,0.00,,,0.00,Weather View 32 v70,2013-02-01 07:47:00,
2013-02-01 02:52:00,26.0,9.0,29.86,West,270,3.0,18.0,48,0.00,,,0.00,Weather View 32 v70,2013-02-01 07:52:00,
2013-02-01 02:57:00,26.0,9.4,29.86,WSW,247,6.0,18.0,49,0.00,,,0.00,Weather View 32 v70,2013-02-01 07:57:00,
2013-02-01 03:02:00,26.0,9.0,29.86,WSW,247,6.0,18.0,48,0.00,,,0.00,Weather View 32 v70,2013-02-01 08:02:00,
2013-02-01 03:07:00,26.0,9.4,29.86,WSW,247,7.0,18.0,49,0.00,,,0.00,Weather View 32 v70,2013-02-01 08:07:00,
2013-02-01 03:12:00,26.0,9.0,29.86,SW,225,1.0,18.0,48,0.00,,,0.00,Weather View 32 v70,2013-02-01 08:12:00,
2013-02-01 03:17:00,26.0,9.0,29.86,SW,225,6.0,18.0,48,0.00,,,0.00,Weather View 32 v70,2013-02-01 08:17:00,
2013-02-01 03:23:00,26.0,9.4,29.87,West,270,5.0,17.0,49,0.00,,,0.00,Weather View 32 v70,2013-02-01 08:23:00,
2013-02-01 03:28:00,26.0,10.3,29.87,SW,225,7.0,17.0,51,0.00,,,0.00,Weather View 32 v70,2013-02-01 08:28:00,
2013-02-01 03:33:00,26.0,9.9,29.87,West,270,6.0,17.0,50,0.00,,,0.00,Weather View 32 v70,2013-02-01 08:33:00,
2013-02-01 03:38:00,26.0,12.8,29.87,WSW,247,5.0,17.0,57,0.00,,,0.00,Weather View 32 v70,2013-02-01 08:38:00,
2013-02-01 03:43:00,26.0,9.9,29.87,WSW,247,6.0,17.0,50,0.00,,,0.00,Weather View 32 v70,2013-02-01 08:43:00,
2013-02-01 03:48:00,26.0,10.3,29.87,NW,315,1.0,13.0,51,0.00,,,0.00,Weather View 32 v70,2013-02-01 08:48:00,
2013-02-01 03:53:00,25.0,9.4,29.87,SW,225,2.0,13.0,51,0.00,,,0.00,Weather View 32 v70,2013-02-01 08:53:00,
2013-02-01 03:58:00,25.0,9.8,29.87,WSW,247,3.0,13.0,52,0.00,,,0.00,Weather View 32 v70,2013-02-01 08:58:00,
2013-02-01 04:03:00,25.0,9.8,29.87,SW,225,3.0,13.0,52,0.00,,,0.00,Weather View 32 v70,2013-02-01 09:03:00,
2013-02-01 04:08:00,25.0,10.3,29.87,WSW,247,5.0,13.0,53,0.00,,,0.00,Weather View 32 v70,2013-02-01 09:08:00,
2013-02-01 04:13:00,25.0,10.7,29.87,WSW,247,5.0,13.0,54,0.00,,,0.00,Weather View 32 v70,2013-02-01 09:13:00,
2013-02-01 04:18:00,25.0,11.1,29.87,South,180,3.0,13.0,55,0.35,,,0.00,Weather View 32 v70,2013-02-01 09:18:00,
2013-02-01 04:23:00,25.0,11.1,29.87,WSW,247,3.0,13.0,55,0.00,,,0.00,Weather View 32 v70,2013-02-01 09:23:00,
2013-02-01 04:28:00,25.0,11.1,29.87,SW,225,4.0,13.0,55,0.00,,,0.00,Weather View 32 v70,2013-02-01 09:28:00,
2013-02-01 04:33:00,25.0,11.9,29.87,SW,225,4.0,13.0,57,0.00,,,0.00,Weather View 32 v70,2013-02-01 09:33:00,
2013-02-01 04:38:00,25.0,11.9,29.87,SW,225,3.0,13.0,57,0.00,,,0.00,Weather View 32 v70,2013-02-01 09:38:00,
2013-02-01 04:43:00,25.0,11.9,29.86,SW,225,5.0,13.0,57,0.00,,,0.00,Weather View 32 v70,2013-02-01 09:43:00,
2013-02-01 04:48:00,25.0,11.9,29.86,WSW,247,1.0,12.0,57,0.00,,,0.00,Weather View 32 v70,2013-02-01 09:48:00,
2013-02-01 04:53:00,25.0,11.9,29.86,SSW,202,5.0,12.0,57,0.00,,,0.00,Weather View 32 v70,2013-02-01 09:53:00,
2013-02-01 04:58:00,25.0,13.4,29.86,SW,225,5.0,9.0,61,0.00,,,0.00,Weather View 32 v70,2013-02-01 09:58:00,
2013-02-01 05:03:00,24.0,11.7,29.86,WSW,247,4.0,9.0,59,0.00,,,0.00,Weather View 32 v70,2013-02-01 10:03:00,
2013-02-01 05:08:00,24.0,11.7,29.86,WSW,247,5.0,9.0,59,0.00,,,0.00,Weather View 32 v70,2013-02-01 10:08:00,
2013-02-01 05:13:00,24.0,11.7,29.87,SW,225,5.0,9.0,59,0.00,,,0.00,Weather View 32 v70,2013-02-01 10:13:00,
2013-02-01 05:18:00,24.0,11.7,29.87,SW,225,3.0,9.0,59,0.00,,,0.00,Weather View 32 v70,2013-02-01 10:18:00,
2013-02-01 05:23:00,24.0,11.7,29.87,WSW,247,4.0,9.0,59,0.00,,,0.00,Weather View 32 v70,2013-02-01 10:23:00,
2013-02-01 05:28:00,24.0,12.5,29.87,SW,225,5.0,9.0,61,0.00,,,0.00,Weather View 32 v70,2013-02-01 10:28:00,
2013-02-01 05:33:00,24.0,12.5,29.88,SW,225,6.0,9.0,61,0.00,,,0.00,Weather View 32 v70,2013-02-01 10:33:00,
2013-02-01 05:38:00,24.0,12.5,29.88,SW,225,7.0,9.0,61,0.00,,,0.00,Weather View 32 v70,2013-02-01 10:38:00,
2013-02-01 05:43:00,24.0,12.9,29.89,SW,225,4.0,9.0,62,0.00,,,0.00,Weather View 32 v70,2013-02-01 10:43:00,
2013-02-01 05:48:00,24.0,13.2,29.89,WSW,247,4.0,9.0,63,0.00,,,0.00,Weather View 32 v70,2013-02-01 10:48:00,
2013-02-01 05:53:00,24.0,13.2,29.89,WSW,247,3.0,9.0,63,0.00,,,0.00,Weather View 32 v70,2013-02-01 10:53:00,
2013-02-01 05:58:00,24.0,13.2,29.89,WSW,247,6.0,9.0,63,0.00,,,0.00,Weather View 32 v70,2013-02-01 10:58:00,
2013-02-01 06:03:00,24.0,12.9,29.90,SSW,202,7.0,9.0,62,0.00,,,0.00,Weather View 32 v70,2013-02-01 11:03:00,
2013-02-01 06:08:00,24.0,12.9,29.90,SW,225,6.0,9.0,62,0.00,,,0.00,Weather View 32 v70,2013-02-01 11:08:00,
2013-02-01 06:13:00,24.0,13.2,29.90,WSW,247,4.0,9.0,63,0.00,,,0.00,Weather View 32 v70,2013-02-01 11:13:00,
2013-02-01 06:18:00,24.0,13.6,29.90,SW,225,4.0,9.0,64,0.00,,,0.00,Weather View 32 v70,2013-02-01 11:18:00,
2013-02-01 06:23:00,24.0,13.6,29.91,WSW,247,3.0,9.0,64,0.00,,,0.00,Weather View 32 v70,2013-02-01 11:23:00,
2013-02-01 06:28:00,24.0,13.9,29.91,SW,225,6.0,9.0,65,0.00,,,0.00,Weather View 32 v70,2013-02-01 11:28:00,
2013-02-01 06:33:00,24.0,13.9,29.91,West,270,5.0,9.0,65,0.00,,,0.00,Weather View 32 v70,2013-02-01 11:33:00,
2013-02-01 06:38:00,24.0,13.9,29.91,SW,225,6.0,9.0,65,0.00,,,0.00,Weather View 32 v70,2013-02-01 11:38:00,
2013-02-01 06:43:00,24.0,13.9,29.92,WSW,247,5.0,9.0,65,0.00,,,0.00,Weather View 32 v70,2013-02-01 11:43:00,
2013-02-01 06:48:00,24.0,14.3,29.92,WSW,247,6.0,9.0,66,0.00,,,0.00,Weather View 32 v70,2013-02-01 11:48:00,
2013-02-01 06:53:00,24.0,13.9,29.92,WSW,247,2.0,9.0,65,0.00,,,0.00,Weather View 32 v70,2013-02-01 11:53:00,
2013-02-01 06:58:00,24.0,14.3,29.92,WSW,247,6.0,9.0,66,0.00,,,0.00,Weather View 32 v70,2013-02-01 11:58:00,
2013-02-01 07:03:00,24.0,14.3,29.93,SW,225,6.0,9.0,66,0.00,,,0.00,Weather View 32 v70,2013-02-01 12:03:00,
2013-02-01 07:08:00,24.0,16.0,29.93,SW,225,6.0,9.0,71,0.00,,,0.00,Weather View 32 v70,2013-02-01 12:08:00,
2013-02-01 07:13:00,24.0,14.3,29.93,WSW,247,6.0,9.0,66,0.00,,,0.00,Weather View 32 v70,2013-02-01 12:13:00,
2013-02-01 07:18:00,24.0,15.0,29.93,WSW,247,2.0,9.0,68,0.00,,,0.00,Weather View 32 v70,2013-02-01 12:18:00,
2013-02-01 07:23:00,24.0,13.9,29.94,SW,225,7.0,9.0,65,0.00,,,0.00,Weather View 32 v70,2013-02-01 12:23:00,
2013-02-01 07:28:00,24.0,13.6,29.94,WSW,247,6.0,10.0,64,0.00,,,0.00,Weather View 32 v70,2013-02-01 12:28:00,
2013-02-01 07:33:00,24.0,13.6,29.94,SW,225,6.0,10.0,64,0.00,,,0.00,Weather View 32 v70,2013-02-01 12:33:00,
2013-02-01 07:38:00,24.0,13.6,29.94,SW,225,5.0,10.0,64,0.00,,,0.00,Weather View 32 v70,2013-02-01 12:38:00,
2013-02-01 07:43:00,24.0,13.6,29.95,WSW,247,7.0,10.0,64,0.00,,,0.00,Weather View 32 v70,2013-02-01 12:43:00,
2013-02-01 07:48:00,24.0,13.6,29.95,SW,225,7.0,10.0,64,0.00,,,0.00,Weather View 32 v70,2013-02-01 12:48:00,
2013-02-01 07:53:00,24.0,13.9,29.96,WSW,247,7.0,10.0,65,0.00,,,0.00,Weather View 32 v70,2013-02-01 12:53:00,
2013-02-01 07:58:00,24.0,13.6,29.96,WSW,247,7.0,10.0,64,0.00,,,0.00,Weather View 32 v70,2013-02-01 12:58:00,
2013-02-01 08:03:00,24.0,13.6,29.96,SW,225,10.0,10.0,64,0.00,,,0.00,Weather View 32 v70,2013-02-01 13:03:00,
2013-02-01 08:08:00,24.0,13.9,29.96,SW,225,6.0,15.0,65,0.00,,,0.00,Weather View 32 v70,2013-02-01 13:08:00,
2013-02-01 08:13:00,25.0,14.5,29.95,WSW,247,3.0,15.0,64,0.00,,,0.00,Weather View 32 v70,2013-02-01 13:13:00,
2013-02-01 08:18:00,25.0,14.2,29.95,SW,225,4.0,15.0,63,0.00,,,0.00,Weather View 32 v70,2013-02-01 13:18:00,
2013-02-01 08:23:00,25.0,14.5,29.96,SW,225,7.0,15.0,64,0.00,,,0.00,Weather View 32 v70,2013-02-01 13:23:00,
2013-02-01 08:28:00,25.0,14.2,29.96,SW,225,5.0,15.0,63,0.00,,,0.00,Weather View 32 v70,2013-02-01 13:28:00,
2013-02-01 08:33:00,25.0,13.8,29.96,West,270,6.0,15.0,62,0.00,,,0.00,Weather View 32 v70,2013-02-01 13:33:00,
2013-02-01 08:38:00,25.0,13.1,29.96,NW,315,2.0,15.0,60,0.00,,,0.00,Weather View 32 v70,2013-02-01 13:38:00,
2013-02-01 08:43:00,26.0,13.6,29.96,SW,225,2.0,15.0,59,0.00,,,0.00,Weather View 32 v70,2013-02-01 13:43:00,
2013-02-01 08:48:00,26.0,14.0,29.96,WSW,247,6.0,15.0,60,0.00,,,0.00,Weather View 32 v70,2013-02-01 13:48:00,
2013-02-01 08:53:00,26.0,13.6,29.96,WSW,247,7.0,15.0,59,0.00,,,0.00,Weather View 32 v70,2013-02-01 13:53:00,
2013-02-01 08:58:00,26.0,12.8,29.96,West,270,10.0,16.0,57,0.00,,,0.00,Weather View 32 v70,2013-02-01 13:58:00,
2013-02-01 09:03:00,26.0,12.0,29.95,NW,315,9.0,20.0,55,0.00,,,0.00,Weather View 32 v70,2013-02-01 14:03:00,
2013-02-01 09:08:00,27.0,13.4,29.95,WNW,292,7.0,20.0,56,0.00,,,0.00,Weather View 32 v70,2013-02-01 14:08:00,
2013-02-01 09:13:00,27.0,13.0,29.95,WSW,247,6.0,20.0,55,0.00,,,0.00,Weather View 32 v70,2013-02-01 14:13:00,
2013-02-01 09:18:00,27.0,13.0,29.95,SW,225,9.0,20.0,55,0.00,,,0.00,Weather View 32 v70,2013-02-01 14:18:00,
2013-02-01 09:23:00,27.0,13.0,29.94,WSW,247,6.0,20.0,55,0.00,,,0.00,Weather View 32 v70,2013-02-01 14:23:00,
2013-02-01 09:28:00,27.0,12.6,29.94,WSW,247,6.0,20.0,54,0.00,,,0.00,Weather View 32 v70,2013-02-01 14:28:00,
2013-02-01 09:33:00,27.0,12.1,29.95,WSW,247,10.0,20.0,53,0.00,,,0.00,Weather View 32 v70,2013-02-01 14:33:00,
2013-02-01 09:38:00,27.0,12.6,29.95,SW,225,5.0,20.0,54,0.00,,,0.00,Weather View 32 v70,2013-02-01 14:38:00,
2013-02-01 09:43:00,28.0,12.6,29.94,WNW,292,7.0,20.0,52,0.00,,,0.00,Weather View 32 v70,2013-02-01 14:43:00,
2013-02-01 09:49:00,28.0,12.6,29.94,WSW,247,10.0,20.0,52,0.00,,,0.00,Weather View 32 v70,2013-02-01 14:49:00,
2013-02-01 09:54:00,28.0,11.7,29.94,NW,315,4.0,20.0,50,0.00,,,0.00,Weather View 32 v70,2013-02-01 14:54:00,
2013-02-01 09:59:00,28.0,12.2,29.94,WSW,247,6.0,20.0,51,0.00,,,0.00,Weather View 32 v70,2013-02-01 14:59:00,
2013-02-01 10:04:00,28.0,12.6,29.94,West,270,4.0,17.0,52,0.00,,,0.00,Weather View 32 v70,2013-02-01 15:04:00,
2013-02-01 10:09:00,28.0,12.2,29.94,WNW,292,12.0,17.0,51,0.00,,,0.00,Weather View 32 v70,2013-02-01 15:09:00,
2013-02-01 10:14:00,28.0,12.6,29.95,WSW,247,1.0,17.0,52,0.00,,,0.00,Weather View 32 v70,2013-02-01 15:14:00,
2013-02-01 10:19:00,28.0,12.2,29.95,WNW,292,11.0,17.0,51,0.00,,,0.00,Weather View 32 v70,2013-02-01 15:19:00,
2013-02-01 10:24:00,28.0,12.6,29.95,West,270,6.0,17.0,52,0.00,,,0.00,Weather View 32 v70,2013-02-01 15:24:00,
2013-02-01 10:29:00,28.0,12.2,29.95,NNW,337,7.0,17.0,51,0.00,,,0.00,Weather View 32 v70,2013-02-01 15:29:00,
2013-02-01 10:34:00,28.0,12.2,29.95,NNW,337,10.0,17.0,51,0.00,,,0.00,Weather View 32 v70,2013-02-01 15:34:00,
2013-02-01 10:39:00,28.0,13.1,29.95,NW,315,6.0,17.0,53,0.79,,,0.00,Weather View 32 v70,2013-02-01 15:39:00,
2013-02-01 10:44:00,28.0,13.1,29.95,NNW,337,10.0,17.0,53,0.00,,,0.00,Weather View 32 v70,2013-02-01 15:44:00,
2013-02-01 10:49:00,28.0,12.2,29.95,NNW,337,9.0,17.0,51,0.00,,,0.00,Weather View 32 v70,2013-02-01 15:49:00,
2013-02-01 10:54:00,28.0,11.3,29.95,WNW,292,6.0,17.0,49,0.00,,,0.00,Weather View 32 v70,2013-02-01 15:54:00,
2013-02-01 10:59:00,28.0,10.8,29.95,NW,315,12.0,17.0,48,0.00,,,0.00,Weather View 32 v70,2013-02-01 15:59:00,
2013-02-01 11:04:00,28.0,10.8,29.96,NW,315,2.0,17.0,48,0.00,,,0.00,Weather View 32 v70,2013-02-01 16:04:00,
2013-02-01 11:09:00,28.0,10.4,29.96,West,270,3.0,17.0,47,0.00,,,0.00,Weather View 32 v70,2013-02-01 16:09:00,
2013-02-01 11:14:00,28.0,10.4,29.96,SW,225,5.0,17.0,47,0.00,,,0.00,Weather View 32 v70,2013-02-01 16:14:00,
2013-02-01 11:19:00,28.0,10.4,29.96,WSW,247,0.0,17.0,47,0.00,,,0.00,Weather View 32 v70,2013-02-01 16:19:00,
2013-02-01 11:24:00,28.0,10.4,29.95,WNW,292,10.0,17.0,47,0.00,,,0.00,Weather View 32 v70,2013-02-01 16:24:00,
2013-02-01 11:29:00,28.0,10.4,29.95,West,270,6.0,17.0,47,0.00,,,0.00,Weather View 32 v70,2013-02-01 16:29:00,
2013-02-01 11:34:00,28.0,8.4,29.95,SSW,202,4.0,17.0,43,0.00,,,0.00,Weather View 32 v70,2013-02-01 16:34:00,
2013-02-01 11:39:00,28.0,8.4,29.95,NW,315,7.0,16.0,43,0.00,,,0.00,Weather View 32 v70,2013-02-01 16:39:00,
2013-02-01 11:44:00,28.0,8.4,29.94,NW,315,9.0,16.0,43,0.00,,,0.00,Weather View 32 v70,2013-02-01 16:44:00,
2013-02-01 11:49:00,28.0,8.4,29.94,NNW,337,3.0,16.0,43,0.00,,,0.00,Weather View 32 v70,2013-02-01 16:49:00,
2013-02-01 11:54:00,28.0,8.9,29.93,SSE,157,1.0,16.0,44,0.00,,,0.00,Weather View 32 v70,2013-02-01 16:54:00,
2013-02-01 11:59:00,28.0,9.4,29.93,WSW,247,9.0,16.0,45,0.00,,,0.00,Weather View 32 v70,2013-02-01 16:59:00,
2013-02-01 12:04:00,28.0,8.9,29.93,NW,315,6.0,16.0,44,0.00,,,0.00,Weather View 32 v70,2013-02-01 17:04:00,
2013-02-01 12:09:00,28.0,9.4,29.93,NNW,337,6.0,16.0,45,0.00,,,0.00,Weather View 32 v70,2013-02-01 17:09:00,
2013-02-01 12:14:00,28.0,9.4,29.93,West,270,9.0,16.0,45,0.00,,,0.00,Weather View 32 v70,2013-02-01 17:14:00,
2013-02-01 12:19:00,28.0,7.9,29.93,West,270,5.0,17.0,42,0.00,,,0.00,Weather View 32 v70,2013-02-01 17:19:00,
2013-02-01 12:24:00,28.0,8.4,29.93,West,270,4.0,17.0,43,0.00,,,0.00,Weather View 32 v70,2013-02-01 17:24:00,
2013-02-01 12:29:00,29.0,9.3,29.93,West,270,3.0,17.0,43,0.00,,,0.00,Weather View 32 v70,2013-02-01 17:29:00,
2013-02-01 12:34:00,30.0,7.4,29.92,WNW,292,5.0,17.0,38,0.00,,,0.00,Weather View 32 v70,2013-02-01 17:34:00,
2013-02-01 12:39:00,30.0,8.0,29.92,NW,315,12.0,17.0,39,0.00,,,0.00,Weather View 32 v70,2013-02-01 17:39:00,
2013-02-01 12:44:00,30.0,8.0,29.91,NNE,22,12.0,17.0,39,0.00,,,0.00,Weather View 32 v70,2013-02-01 17:44:00,
2013-02-01 12:49:00,29.0,7.7,29.91,West,270,6.0,17.0,40,0.00,,,0.00,Weather View 32 v70,2013-02-01 17:49:00,
2013-02-01 12:54:00,28.0,6.8,29.92,NW,315,8.0,17.0,40,0.00,,,0.00,Weather View 32 v70,2013-02-01 17:54:00,
2013-02-01 12:59:00,28.0,7.9,29.92,NNW,337,9.0,17.0,42,0.00,,,0.00,Weather View 32 v70,2013-02-01 17:59:00,
2013-02-01 13:04:00,28.0,7.3,29.93,NNW,337,10.0,17.0,41,0.00,,,0.00,Weather View 32 v70,2013-02-01 18:04:00,
2013-02-01 13:09:00,28.0,6.2,29.93,NNE,22,12.0,17.0,39,0.00,,,0.00,Weather View 32 v70,2013-02-01 18:09:00,
2013-02-01 13:14:00,29.0,6.6,29.93,North,360,8.0,19.0,38,0.00,,,0.00,Weather View 32 v70,2013-02-01 18:14:00,
2013-02-01 13:19:00,29.0,6.0,29.93,NW,315,10.0,19.0,37,0.00,,,0.00,Weather View 32 v70,2013-02-01 18:19:00,
2013-02-01 13:24:00,29.0,4.8,29.93,NW,315,1.0,19.0,35,0.00,,,0.00,Weather View 32 v70,2013-02-01 18:24:00,
2013-02-01 13:29:00,29.0,5.4,29.93,NW,315,10.0,19.0,36,0.00,,,0.00,Weather View 32 v70,2013-02-01 18:29:00,
2013-02-01 13:34:00,29.0,6.0,29.93,WNW,292,11.0,19.0,37,0.00,,,0.00,Weather View 32 v70,2013-02-01 18:34:00,
2013-02-01 13:39:00,29.0,4.8,29.93,NW,315,11.0,19.0,35,0.00,,,0.00,Weather View 32 v70,2013-02-01 18:39:00,
2013-02-01 13:44:00,29.0,4.1,29.94,North,360,10.0,19.0,34,0.00,,,0.00,Weather View 32 v70,2013-02-01 18:44:00,
2013-02-01 13:49:00,30.0,5.0,29.94,NNW,337,6.0,19.0,34,0.00,,,0.00,Weather View 32 v70,2013-02-01 18:49:00,
2013-02-01 13:54:00,30.0,6.3,29.93,North,360,10.0,19.0,36,0.00,,,0.00,Weather View 32 v70,2013-02-01 18:54:00,
2013-02-01 13:59:00,29.0,6.0,29.93,WSW,247,6.0,19.0,37,0.00,,,0.00,Weather View 32 v70,2013-02-01 18:59:00,
2013-02-01 14:04:00,29.0,6.6,29.94,WNW,292,12.0,20.0,38,0.00,,,0.00,Weather View 32 v70,2013-02-01 19:04:00,
2013-02-01 14:09:00,28.0,5.7,29.94,NW,315,9.0,20.0,38,0.00,,,0.00,Weather View 32 v70,2013-02-01 19:09:00,
2013-02-01 14:14:00,29.0,6.6,29.95,NW,315,7.0,20.0,38,0.00,,,0.00,Weather View 32 v70,2013-02-01 19:14:00,
2013-02-01 14:19:00,28.0,3.2,29.95,NW,315,9.0,20.0,34,0.00,,,0.00,Weather View 32 v70,2013-02-01 19:19:00,
2013-02-01 14:24:00,29.0,4.1,29.95,WNW,292,7.0,20.0,34,0.00,,,0.00,Weather View 32 v70,2013-02-01 19:24:00,
2013-02-01 14:29:00,29.0,4.8,29.95,North,360,4.0,20.0,35,0.00,,,0.00,Weather View 32 v70,2013-02-01 19:29:00,
2013-02-01 14:34:00,29.0,3.5,29.96,NW,315,6.0,20.0,33,0.00,,,0.00,Weather View 32 v70,2013-02-01 19:34:00,
2013-02-01 14:39:00,29.0,4.1,29.96,NW,315,8.0,20.0,34,0.00,,,0.00,Weather View 32 v70,2013-02-01 19:39:00,
2013-02-01 14:44:00,29.0,4.8,29.97,West,270,3.0,20.0,35,0.00,,,0.00,Weather View 32 v70,2013-02-01 19:44:00,
2013-02-01 14:49:00,29.0,4.8,29.97,WNW,292,12.0,20.0,35,0.00,,,0.00,Weather View 32 v70,2013-02-01 19:49:00,
2013-02-01 14:54:00,29.0,5.4,29.96,WSW,247,4.0,22.0,36,0.00,,,0.00,Weather View 32 v70,2013-02-01 19:54:00,
2013-02-01 14:59:00,29.0,6.6,29.96,NW,315,12.0,22.0,38,0.00,,,0.00,Weather View 32 v70,2013-02-01 19:59:00,
2013-02-01 15:04:00,28.0,8.4,29.98,North,360,6.0,22.0,43,0.00,,,0.00,Weather View 32 v70,2013-02-01 20:04:00,
2013-02-01 15:09:00,28.0,10.8,29.98,NNW,337,10.0,22.0,48,0.00,,,0.00,Weather View 32 v70,2013-02-01 20:09:00,
2013-02-01 15:14:00,27.0,9.9,29.99,North,360,8.0,22.0,48,0.00,,,0.00,Weather View 32 v70,2013-02-01 20:14:00,
2013-02-01 15:19:00,27.0,9.9,29.99,North,360,6.0,22.0,48,0.00,,,0.00,Weather View 32 v70,2013-02-01 20:19:00,
2013-02-01 15:24:00,27.0,9.9,30.00,NW,315,10.0,22.0,48,0.00,,,0.00,Weather View 32 v70,2013-02-01 20:24:00,
2013-02-01 15:29:00,27.0,9.4,30.01,North,360,13.0,22.0,47,0.00,,,0.00,Weather View 32 v70,2013-02-01 20:29:00,
2013-02-01 15:34:00,28.0,10.8,30.01,NW,315,5.0,22.0,48,0.00,,,0.00,Weather View 32 v70,2013-02-01 20:34:00,
2013-02-01 15:39:00,28.0,8.4,30.01,NNW,337,17.0,25.0,43,0.00,,,0.00,Weather View 32 v70,2013-02-01 20:39:00,
2013-02-01 15:44:00,28.0,8.4,30.01,NNW,337,10.0,25.0,43,0.00,,,0.00,Weather View 32 v70,2013-02-01 20:44:00,
2013-02-01 15:49:00,27.0,7.5,30.03,NW,315,17.0,25.0,43,0.00,,,0.00,Weather View 32 v70,2013-02-01 20:49:00,
2013-02-01 15:54:00,27.0,8.5,30.03,NW,315,12.0,25.0,45,0.00,,,0.00,Weather View 32 v70,2013-02-01 20:54:00,
2013-02-01 15:59:00,27.0,8.0,30.03,NW,315,11.0,25.0,44,0.00,,,0.00,Weather View 32 v70,2013-02-01 20:59:00,
2013-02-01 16:04:00,27.0,8.5,30.03,WNW,292,9.0,25.0,45,0.00,,,0.00,Weather View 32 v70,2013-02-01 21:04:00,
2013-02-01 16:09:00,28.0,8.9,30.03,WSW,247,5.0,25.0,44,0.00,,,0.00,Weather View 32 v70,2013-02-01 21:09:00,
2013-02-01 16:14:00,28.0,9.4,30.03,North,360,7.0,25.0,45,0.00,,,0.00,Weather View 32 v70,2013-02-01 21:14:00,
2013-02-01 16:19:00,27.0,11.3,30.05,North,360,9.0,25.0,51,0.00,,,0.00,Weather View 32 v70,2013-02-01 21:19:00,
2013-02-01 16:24:00,26.0,9.9,30.05,NNE,22,19.0,25.0,50,0.00,,,0.00,Weather View 32 v70,2013-02-01 21:24:00,
2013-02-01 16:29:00,26.0,8.0,30.06,NNE,22,10.0,25.0,46,0.00,,,0.00,Weather View 32 v70,2013-02-01 21:29:00,
2013-02-01 16:34:00,26.0,8.5,30.06,North,360,9.0,25.0,47,0.00,,,0.00,Weather View 32 v70,2013-02-01 21:34:00,
2013-02-01 16:39:00,26.0,8.5,30.06,NW,315,13.0,25.0,47,0.00,,,0.00,Weather View 32 v70,2013-02-01 21:39:00,
2013-02-01 16:45:00,26.0,9.0,30.06,North,360,6.0,25.0,48,0.00,,,0.00,Weather View 32 v70,2013-02-01 21:45:00,
2013-02-01 16:50:00,26.0,9.0,30.07,NW,315,10.0,25.0,48,0.00,,,0.00,Weather View 32 v70,2013-02-01 21:50:00,
2013-02-01 16:55:00,25.0,9.0,30.07,NNW,337,6.0,22.0,50,0.00,,,0.00,Weather View 32 v70,2013-02-01 21:55:00,
2013-02-01 17:00:00,26.0,9.4,30.08,NW,315,7.0,22.0,49,0.00,,,0.00,Weather View 32 v70,2013-02-01 22:00:00,
2013-02-01 17:05:00,25.0,8.5,30.08,NW,315,12.0,22.0,49,0.00,,,0.00,Weather View 32 v70,2013-02-01 22:05:00,
2013-02-01 17:10:00,25.0,7.6,30.09,West,270,9.0,22.0,47,0.00,,,0.00,Weather View 32 v70,2013-02-01 22:10:00,
2013-02-01 17:15:00,25.0,7.6,30.09,North,360,9.0,22.0,47,0.00,,,0.00,Weather View 32 v70,2013-02-01 22:15:00,
2013-02-01 17:20:00,25.0,6.6,30.09,West,270,9.0,23.0,45,0.79,,,0.00,Weather View 32 v70,2013-02-01 22:20:00,
2013-02-01 17:25:00,25.0,5.6,30.09,NW,315,7.0,23.0,43,0.00,,,0.00,Weather View 32 v70,2013-02-01 22:25:00,
2013-02-01 17:30:00,25.0,5.6,30.11,NNW,337,6.0,23.0,43,0.00,,,0.00,Weather View 32 v70,2013-02-01 22:30:00,
2013-02-01 17:35:00,25.0,6.6,30.11,NW,315,12.0,23.0,45,0.00,,,0.00,Weather View 32 v70,2013-02-01 22:35:00,
2013-02-01 17:40:00,25.0,7.1,30.11,NW,315,7.0,23.0,46,0.00,,,0.00,Weather View 32 v70,2013-02-01 22:40:00,
2013-02-01 17:45:00,24.0,6.7,30.11,NNE,22,6.0,23.0,47,0.00,,,0.00,Weather View 32 v70,2013-02-01 22:45:00,
2013-02-01 17:50:00,24.0,6.7,30.13,North,360,4.0,23.0,47,0.00,,,0.00,Weather View 32 v70,2013-02-01 22:50:00,
2013-02-01 17:55:00,24.0,7.1,30.13,NNW,337,12.0,23.0,48,0.00,,,0.00,Weather View 32 v70,2013-02-01 22:55:00,
2013-02-01 18:00:00,24.0,7.1,30.15,North,360,0.0,23.0,48,0.00,,,0.00,Weather View 32 v70,2013-02-01 23:00:00,
2013-02-01 18:05:00,24.0,7.1,30.15,NNW,337,6.0,23.0,48,0.00,,,0.00,Weather View 32 v70,2013-02-01 23:05:00,
2013-02-01 18:10:00,24.0,7.1,30.15,NW,315,9.0,23.0,48,0.00,,,0.00,Weather View 32 v70,2013-02-01 23:10:00,
2013-02-01 18:15:00,23.0,6.2,30.15,NNW,337,5.0,23.0,48,0.00,,,0.00,Weather View 32 v70,2013-02-01 23:15:00,
2013-02-01 18:20:00,23.0,4.8,30.15,NNW,337,13.0,20.0,45,0.00,,,0.00,Weather View 32 v70,2013-02-01 23:20:00,
2013-02-01 18:25:00,23.0,3.8,30.16,WNW,292,7.0,20.0,43,0.00,,,0.00,Weather View 32 v70,2013-02-01 23:25:00,
2013-02-01 18:30:00,23.0,3.8,30.17,North,360,3.0,20.0,43,0.00,,,0.00,Weather View 32 v70,2013-02-01 23:30:00,
2013-02-01 18:35:00,23.0,3.3,30.17,NW,315,10.0,20.0,42,0.00,,,0.00,Weather View 32 v70,2013-02-01 23:35:00,
2013-02-01 18:40:00,23.0,3.3,30.18,NW,315,9.0,20.0,42,0.00,,,0.00,Weather View 32 v70,2013-02-01 23:40:00,
2013-02-01 18:45:00,23.0,3.3,30.18,NNW,337,5.0,20.0,42,0.00,,,0.00,Weather View 32 v70,2013-02-01 23:45:00,
2013-02-01 18:50:00,23.0,3.8,30.19,NW,315,7.0,16.0,43,0.00,,,0.00,Weather View 32 v70,2013-02-01 23:50:00,
2013-02-01 18:55:00,23.0,3.8,30.19,NW,315,7.0,16.0,43,0.00,,,0.00,Weather View 32 v70,2013-02-01 23:55:00,
2013-02-01 19:00:00,23.0,3.8,30.19,NW,315,5.0,16.0,43,0.00,,,0.00,Weather View 32 v70,2013-02-02 00:00:00,
2013-02-01 19:05:00,23.0,3.8,30.19,NW,315,10.0,16.0,43,0.00,,,0.00,Weather View 32 v70,2013-02-02 00:05:00,
2013-02-01 19:10:00,23.0,3.8,30.20,NNW,337,1.0,16.0,43,0.00,,,0.00,Weather View 32 v70,2013-02-02 00:10:00,
2013-02-01 19:15:00,22.0,4.4,30.20,NNW,337,5.0,16.0,46,0.00,,,0.00,Weather View 32 v70,2013-02-02 00:15:00,
2013-02-01 19:20:00,22.0,3.4,30.21,North,360,6.0,15.0,44,0.00,,,0.00,Weather View 32 v70,2013-02-02 00:20:00,
2013-02-01 19:25:00,22.0,4.4,30.21,WNW,292,6.0,15.0,46,0.00,,,0.00,Weather View 32 v70,2013-02-02 00:25:00,
2013-02-01 19:30:00,22.0,4.4,30.21,NE,45,0.0,15.0,46,0.00,,,0.00,Weather View 32 v70,2013-02-02 00:30:00,
2013-02-01 19:35:00,22.0,4.4,30.21,NW,315,2.0,15.0,46,0.00,,,0.00,Weather View 32 v70,2013-02-02 00:35:00,
2013-02-01 19:40:00,22.0,3.9,30.22,NW,315,7.0,15.0,45,0.00,,,0.00,Weather View 32 v70,2013-02-02 00:40:00,
2013-02-01 19:45:00,22.0,4.4,30.22,NNW,337,4.0,13.0,46,0.00,,,0.00,Weather View 32 v70,2013-02-02 00:45:00,
2013-02-01 19:50:00,22.0,4.4,30.23,NW,315,9.0,13.0,46,0.00,,,0.00,Weather View 32 v70,2013-02-02 00:50:00,
2013-02-01 19:55:00,22.0,4.4,30.23,NW,315,6.0,15.0,46,0.00,,,0.00,Weather View 32 v70,2013-02-02 00:55:00,
2013-02-01 20:00:00,22.0,4.4,30.23,NW,315,4.0,15.0,46,0.00,,,0.00,Weather View 32 v70,2013-02-02 01:00:00,
2013-02-01 20:05:00,22.0,5.3,30.23,NW,315,8.0,15.0,48,0.00,,,0.00,Weather View 32 v70,2013-02-02 01:05:00,
2013-02-01 20:10:00,22.0,5.3,30.23,SW,225,6.0,15.0,48,0.00,,,0.00,Weather View 32 v70,2013-02-02 01:10:00,
2013-02-01 20:15:00,22.0,5.8,30.23,NW,315,5.0,15.0,49,0.00,,,0.00,Weather View 32 v70,2013-02-02 01:15:00,
2013-02-01 20:20:00,22.0,5.3,30.24,North,360,7.0,15.0,48,0.00,,,0.00,Weather View 32 v70,2013-02-02 01:20:00,
2013-02-01 20:25:00,22.0,5.3,30.24,NNW,337,7.0,15.0,48,0.00,,,0.00,Weather View 32 v70,2013-02-02 01:25:00,
2013-02-01 20:30:00,22.0,5.8,30.24,NW,315,4.0,15.0,49,0.00,,,0.00,Weather View 32 v70,2013-02-02 01:30:00,
2013-02-01 20:35:00,21.0,4.8,30.24,West,270,3.0,15.0,49,0.00,,,0.00,Weather View 32 v70,2013-02-02 01:35:00,
2013-02-01 20:40:00,22.0,5.8,30.24,WNW,292,5.0,15.0,49,0.00,,,0.00,Weather View 32 v70,2013-02-02 01:40:00,
2013-02-01 20:45:00,21.0,5.7,30.24,WNW,292,2.0,15.0,51,0.00,,,0.00,Weather View 32 v70,2013-02-02 01:45:00,
2013-02-01 20:50:00,21.0,5.7,30.25,NW,315,3.0,15.0,51,0.00,,,0.00,Weather View 32 v70,2013-02-02 01:50:00,
2013-02-01 20:55:00,21.0,5.7,30.25,WNW,292,1.0,14.0,51,0.00,,,0.00,Weather View 32 v70,2013-02-02 01:55:00,
2013-02-01 21:00:00,21.0,5.7,30.25,NW,315,6.0,14.0,51,0.00,,,0.00,Weather View 32 v70,2013-02-02 02:00:00,
2013-02-01 21:05:00,21.0,6.5,30.25,NW,315,4.0,14.0,53,0.00,,,0.00,Weather View 32 v70,2013-02-02 02:05:00,
2013-02-01 21:10:00,21.0,6.5,30.25,NW,315,6.0,14.0,53,0.00,,,0.00,Weather View 32 v70,2013-02-02 02:10:00,
2013-02-01 21:15:00,21.0,6.5,30.25,NNW,337,6.0,14.0,53,0.00,,,0.00,Weather View 32 v70,2013-02-02 02:15:00,
2013-02-01 21:20:00,21.0,6.5,30.26,West,270,7.0,14.0,53,0.00,,,0.00,Weather View 32 v70,2013-02-02 02:20:00,
2013-02-01 21:25:00,21.0,6.5,30.26,WNW,292,6.0,14.0,53,0.00,,,0.00,Weather View 32 v70,2013-02-02 02:25:00,
2013-02-01 21:30:00,21.0,6.5,30.26,WNW,292,3.0,14.0,53,0.00,,,0.00,Weather View 32 v70,2013-02-02 02:30:00,
2013-02-01 21:35:00,21.0,7.4,30.26,NW,315,1.0,14.0,55,0.00,,,0.00,Weather View 32 v70,2013-02-02 02:35:00,
2013-02-01 21:40:00,21.0,7.8,30.26,WSW,247,3.0,14.0,56,0.00,,,0.00,Weather View 32 v70,2013-02-02 02:40:00,
2013-02-01 21:45:00,20.0,6.8,30.26,West,270,4.0,14.0,56,0.00,,,0.00,Weather View 32 v70,2013-02-02 02:45:00,
2013-02-01 21:50:00,21.0,8.5,30.27,West,270,1.0,14.0,58,0.00,,,0.00,Weather View 32 v70,2013-02-02 02:50:00,
2013-02-01 21:55:00,20.0,7.6,30.27,WSW,247,5.0,14.0,58,0.00,,,0.00,Weather View 32 v70,2013-02-02 02:55:00,
2013-02-01 22:00:00,20.0,7.2,30.27,SW,225,1.0,10.0,57,0.00,,,0.00,Weather View 32 v70,2013-02-02 03:00:00,
2013-02-01 22:05:00,20.0,7.6,30.27,WNW,292,1.0,10.0,58,0.00,,,0.00,Weather View 32 v70,2013-02-02 03:05:00,
2013-02-01 22:10:00,20.0,7.6,30.28,West,270,6.0,10.0,58,0.00,,,0.00,Weather View 32 v70,2013-02-02 03:10:00,
2013-02-01 22:15:00,20.0,7.6,30.28,WNW,292,2.0,10.0,58,0.00,,,0.00,Weather View 32 v70,2013-02-02 03:15:00,
2013-02-01 22:20:00,20.0,7.6,30.28,WNW,292,0.0,9.0,58,0.00,,,0.00,Weather View 32 v70,2013-02-02 03:20:00,
2013-02-01 22:25:00,20.0,8.0,30.28,WNW,292,1.0,8.0,59,0.00,,,0.00,Weather View 32 v70,2013-02-02 03:25:00,
2013-02-01 22:30:00,20.0,8.0,30.29,West,270,4.0,8.0,59,0.00,,,0.00,Weather View 32 v70,2013-02-02 03:30:00,
2013-02-01 22:35:00,20.0,8.0,30.29,WNW,292,1.0,7.0,59,0.00,,,0.00,Weather View 32 v70,2013-02-02 03:35:00,
2013-02-01 22:40:00,20.0,7.6,30.29,NW,315,8.0,8.0,58,0.00,,,0.00,Weather View 32 v70,2013-02-02 03:40:00,
2013-02-01 22:45:00,20.0,8.3,30.29,NNW,337,7.0,10.0,60,0.00,,,0.00,Weather View 32 v70,2013-02-02 03:45:00,
2013-02-01 22:50:00,20.0,7.2,30.29,West,270,3.0,12.0,57,0.00,,,0.00,Weather View 32 v70,2013-02-02 03:50:00,
2013-02-01 22:55:00,20.0,7.6,30.29,West,270,7.0,12.0,58,0.00,,,0.00,Weather View 32 v70,2013-02-02 03:55:00,
2013-02-01 23:00:00,21.0,7.8,30.28,WNW,292,6.0,13.0,56,0.00,,,0.00,Weather View 32 v70,2013-02-02 04:00:00,
2013-02-01 23:05:00,21.0,11.1,30.28,West,270,3.0,13.0,65,0.00,,,0.00,Weather View 32 v70,2013-02-02 04:05:00,
2013-02-01 23:10:00,21.0,9.3,30.28,NNE,22,2.0,13.0,60,0.00,,,0.00,Weather View 32 v70,2013-02-02 04:10:00,
2013-02-01 23:15:00,21.0,8.5,30.28,NW,315,7.0,15.0,58,0.00,,,0.00,Weather View 32 v70,2013-02-02 04:15:00,
2013-02-01 23:20:00,21.0,8.5,30.29,West,270,2.0,15.0,58,0.00,,,0.00,Weather View 32 v70,2013-02-02 04:20:00,
2013-02-01 23:25:00,21.0,8.5,30.29,WNW,292,3.0,15.0,58,0.00,,,0.00,Weather View 32 v70,2013-02-02 04:25:00,
2013-02-01 23:30:00,21.0,8.5,30.29,WNW,292,3.0,15.0,58,0.00,,,0.00,Weather View 32 v70,2013-02-02 04:30:00,
2013-02-01 23:35:00,21.0,8.2,30.29,WNW,292,5.0,15.0,57,0.00,,,0.00,Weather View 32 v70,2013-02-02 04:35:00,
2013-02-01 23:40:00,21.0,7.8,30.29,WNW,292,12.0,15.0,56,0.00,,,0.00,Weather View 32 v70,2013-02-02 04:40:00,
2013-02-01 23:45:00,21.0,7.8,30.29,WNW,292,6.0,15.0,56,0.00,,,0.00,Weather View 32 v70,2013-02-02 04:45:00,
2013-02-01 23:50:00,21.0,7.8,30.29,SW,225,6.0,15.0,56,0.00,,,0.00,Weather View 32 v70,2013-02-02 04:50:00,
2013-02-01 23:55:00,21.0,7.8,30.29,NNW,337,7.0,15.0,56,0.00,,,0.00,Weather View 32 v70,2013-02-02 04:55:00,